Location: Hillern
(53.0557°N, 9.8577°E)
Time: 00:37:34
(UTC+00:00)

Meteor 1-27 Rocket - Pass Details

Date: 19 May 2025
Orbit: 830 x 908 km, 81.3° (Epoch: 22 June)

Event Time Altitude Azimuth Distance (km) Brightness Sun altitude
Exits shadow 22:30:54 22° 196° (SSW) 1,768 4.9 -16.3°
Maximum altitude 22:34:38 83° 283° (WNW) 854 3.7 -16.4°
Drops below altitude 10° 22:40:13 10° 12° (NNE) 2,456 7.2 -16.5°
Sets 22:42:37 0° 14° (NNE) 3,390 8.1 -16.6°
